This is the latest recevied weather packets stored in our database for station/object NN3A-3. If no packets are shown the sender has not sent any weather packets the latest 10 day(s).
| Time | Temp. | Humidity | Pressure | Rain* | Wind** | Luminosity | Snow |
|---|---|---|---|---|---|---|---|
| 1777665053 | 14.44° C | 63% | 1009.6 hPa | 0 mm | - | - | - |
| 1777664753 | 13.89° C | 62% | 1010 hPa | 0 mm | - | - | - |
| 1777664153 | 13.89° C | 61% | 1010.3 hPa | 0 mm | - | - | - |
| 1777663853 | 13.89° C | 61% | 1010.3 hPa | 0 mm | - | - | - |
| 1777663553 | 13.89° C | 60% | 1010 hPa | 0 mm | - | - | - |
| 1777663253 | 14.44° C | 59% | 1010 hPa | 0 mm | - | - | - |
| 1777662955 | 14.44° C | 60% | 1010.3 hPa | 0 mm | - | - | - |
| 1777662355 | 15° C | 59% | 1010 hPa | 0 mm | - | - | - |
| 1777662054 | 15° C | 58% | 1010 hPa | 0 mm | - | - | - |
| 1777661754 | 15° C | 61% | 1010 hPa | 0 mm | - | - | - |
| 1777661455 | 15° C | 61% | 1010 hPa | 0 mm | - | - | - |
| 1777661155 | 15° C | 63% | 1010 hPa | 0 mm | - | - | - |
| 1777660555 | 15° C | 63% | 1010.3 hPa | 0 mm | - | - | - |
| 1777660256 | 14.44° C | 62% | 1010.3 hPa | 0 mm | - | - | - |
| 1777659355 | 14.44° C | 63% | 1010.3 hPa | 0 mm | - | - | - |
| 1777658756 | 13.89° C | 62% | 1010.3 hPa | 0 mm | - | - | - |
| 1777658458 | 14.44° C | 61% | 1010.6 hPa | 0 mm | - | - | - |
| 1777658156 | 14.44° C | 63% | 1010.3 hPa | 0 mm | - | - | - |
| 1777657856 | 14.44° C | 63% | 1010.6 hPa | 0 mm | - | - | - |
| 1777657558 | 13.89° C | 63% | 1010.6 hPa | 0 mm | - | - | - |
| 1777656957 | 15° C | 62% | 1010.6 hPa | 0 mm | - | - | - |
| 1777656657 | 15° C | 63% | 1010.6 hPa | 0 mm | - | - | - |
| 1777656357 | 15° C | 65% | 1010.6 hPa | 0 mm | - | - | - |
| 1777656058 | 14.44° C | 65% | 1011 hPa | 0 mm | - | - | - |
| 1777655757 | 13.89° C | 65% | 1011 hPa | 0 mm | - | - | - |
* Rain latest hour (hover to see other rain measurements)
** Current wind speed in m/s (hover to see current wind gust speed)